weather.gov     
National Weather Service

Terminal Aerodrome Forecast
NWS Homepage
This page is being discontinued on March 12, 2014.
The same data is available at this site. Please update your bookmarks.
Thank you, and we apologize for the inconvenience.
Please send an email to SR-SRH.Webmaster@noaa.gov with any concerns.


Current Version
Previous Version:    01  02  03  04  05  06  07  08  09  10  11  12  13  14  15  16  17  18  19  20  21  22  23  24  25  26  27  28  29  30  
   31  
[Printable]
786
FTUS45 KSLC 301120
TAFPVU
TAF
KPVU 301120Z 3012/3112 12006KT P6SM VCSH SCT060 BKN090
      TEMPO 3012/3013 -SHRA BKN060
     FM301300 14008KT P6SM SCT060 BKN090
     FM301500 28008KT P6SM SCT090 BKN120
     FM302100 32012G18KT P6SM FEW110 SCT140
     FM310500 VRB05KT P6SM SCT140
      AMD LTD TO CLD VIS AND WIND=




786
FTUS45 KSLC 301120
TAFPVU
TAF
KPVU 301120Z 3012/3112 12006KT P6SM VCSH SCT060 BKN090
      TEMPO 3012/3013 -SHRA BKN060
     FM301300 14008KT P6SM SCT060 BKN090
     FM301500 28008KT P6SM SCT090 BKN120
     FM302100 32012G18KT P6SM FEW110 SCT140
     FM310500 VRB05KT P6SM SCT140
      AMD LTD TO CLD VIS AND WIND=


U.S. Dept. of Commerce
NOAA National Weather Service
1325 East West Highway
Silver Spring, MD 20910
E-mail: w-nws.webmaster@noaa.gov
Page last modified: May 16, 2007
NATIONAL WEATHER SERVICE: for Safety, for Work, for Fun - FOR LIFE